Miscellaneous Local Product
Issued by NWS North Platte, NE

Home | Current Version | Previous Version | Text Only | Print | Product List | Glossary On
Versions: 1 2 3 4 5 6 7 8 9 10 11 12 13 14 15 16 17 18 19 20 21 22 23 24 25 26 27 28 29 30 31 32 33 34 35 36 37 38 39 40 41 42 43 44 45 46 47 48 49 50
000
AXUS43 KLBF 272010
MISLBF


WESTERN AND NORTH CENTRAL NEBRASKA HOURLY WEATHER ROUNDUP
NATIONAL WEATHER SERVICE NORTH PLATTE NE
300 PM CDT WED MAY 27 2015

***STATIONS NOT REPORTING VARIABLES SUCH AS SKY/WEATHER OR
PRESSURE ARE PROVIDED BY THE NEBRASKA DEPARTMENT OF
ROADS...RAWS...AND APRS NETWORKS...AND ARE NOT UNDER
NATIONAL WEATHER SERVICE QUALITY CONTROL***

...OBSERVATIONS IN AND NEAR THE EASTERN PANHANDLE OF NEBRASKA...

CITY           SKY/WX    TMP DP  RH WIND       PRES   REMARKS
PINE RIDGE     MOSUNNY   73  54  51 S14       29.97F
CHADRON        PTSUNNY   72  56  57 S7        29.95F
ALLIANCE       MOSUNNY   73  53  49 S17       30.01S
SIDNEY         MOSUNNY   73  57  57 S10       30.04F
WHITECLAY        N/A     74  53  47 S18         N/A
BIG SPRINGS      N/A     74  57  55 SE14        N/A
$$

...OBSERVATIONS IN NORTH CENTRAL NEBRASKA...

CITY           SKY/WX    TMP DP  RH WIND       PRES   REMARKS
VALENTINE      PTSUNNY   77  48  35 SE20G28   30.02F
THEDFORD       PTSUNNY   76  52  43 S17       30.04F
AINSWORTH      CLOUDY    72  49  44 S12       30.05F
O`NEILL        MOSUNNY   79  48  34 S13G18    30.06S
ORD            PTSUNNY   77  47  34 S14       30.05F
BROKEN BOW     CLOUDY    76  51  41 SE14      30.06F
BROWNLEE         N/A     78  46  31 S18         N/A
VALENTINE NWR    N/A     74  50  42 S14G22      N/A
SPRINGVIEW       N/A     75  52  45 S7G16       N/A
HALSEY           N/A     75  49  39 SE10G17     N/A
BREWSTER         N/A     80  52  36 S15         N/A
ROSE             N/A     80  53  38 E15         N/A
NEWPORT          N/A     78  50  37 S14         N/A
SARGENT          N/A     75  52  45 SE3         N/A
COMSTOCK         N/A     82  52  34 S14         N/A
EWING            N/A     81  52  36 S8G16       N/A
$$

...OBSERVATIONS IN SOUTHWEST NEBRASKA AND FAR NORTHEAST COLORADO...

CITY           SKY/WX    TMP DP  RH WIND       PRES   REMARKS
WRAY           FAIR      78  55  44 SE15G23   30.00F
HOLYOKE        FAIR      70  57  64 SE13      30.03F
IMPERIAL       MOSUNNY   70  56  61 S16G26    30.03F
OGALLALA       PTSUNNY   76  56  49 S15G21    30.02F
NORTH PLATTE   MOSUNNY   76  56  49 SE15G26   30.04F
MCCOOK         PTSUNNY   72  60  66 E15       30.05F
LEXINGTON      PTSUNNY   72  55  55 S14G20    30.08R
PAXTON           N/A     74  58  57 SE21        N/A
GOTHENBURG       N/A     69  53  57 S8          N/A
CALLAWAY         N/A     78  59  51 S18         N/A
$$

...NORTH PLATTE AREA...

CITY           SKY/WX    TMP DP  RH WIND       PRES   REMARKS
AIRPORT        MOSUNNY   76  56  49 SE15G26   30.04F
$$

...SOME WEATHER OBSERVATIONS FROM AROUND THE REGION...

CITY           SKY/WX    TMP DP  RH WIND       PRES   REMARKS
DENVER         PTSUNNY   73  42  32 N5        30.05F
LARAMIE        MOSUNNY   64  37  36 W18G25    30.13S
CHEYENNE       PTSUNNY   67  40  37 CALM      30.07F
SCOTTSBLUFF    TSTM      56  52  86 NE8       30.04R
RAPID CITY     CLOUDY    66  56  70 S6        29.96R
PIERRE         MOSUNNY   78  50  37 S20G28    29.97F
WINNER         PTSUNNY   81  46  29 S20G30    30.02F
SIOUX FALLS    MOSUNNY   82  52  35 SW8       30.01S
OMAHA          MOSUNNY   84  51  31 SW8       30.05F
GRAND ISLAND   PTSUNNY   81  43  26 SE13G20   30.07F
KANSAS CITY    CLOUDY    81  55  40 S7        30.09F
WICHITA        PTSUNNY   79  64  60 S13       30.07F
HAYS           PTSUNNY   75  59  57 SE16      30.08F
LIBERAL        MOSUNNY   84  57  39 SE17G23   30.03F
GOODLAND       MOSUNNY   78  57  48 S20G30    30.02F
$$



USA.gov is the U.S. government's official web portal to all federal, state and local government web resources and services.